Simultaneous Nadir Overpasses (SNOs) Predictions

Prediction of SNOs between LANDSAT-8 and METOP-A Satellite Orbit:

Table of predicted SNOs for the next 14.0 days since TLE Epoch: 6/29/2020
Index Date (LANDSAT-8) Time (LANDSAT-8) Lat,Lon (LANDSAT-8) SZA (LANDSAT-8 ) Date (METOP-A) Time (METOP-A) Lat,Lon (METOP-A) SZA (METOP-A ) Distance(km) Time Diff (sec)
1 06/30/2020 10:17:46 -81.48,-107.84 118.96 06/30/2020 10:16:42 -81.47,-107.90 119.00 1.24 64
2 06/30/2020 11:07:13 81.47, 59.56 61.01 06/30/2020 11:07:23 81.47, 59.44 61.01 2.13 10
3 07/03/2020 05:52:02 -81.47, -41.55 118.79 07/03/2020 05:51:03 -81.47, -41.68 118.83 2.09 59
4 07/03/2020 06:41:28 81.47, 126.21 61.24 07/03/2020 06:41:43 81.47, 126.04 61.22 3.08 15
5 07/06/2020 01:26:18 -81.48, 25.11 118.51 07/06/2020 01:25:24 -81.47, 24.93 118.56 3.13 54
6 07/06/2020 02:15:45 81.47,-167.55 61.46 07/06/2020 02:16:04 81.46,-167.37 61.48 2.89 19
7 07/08/2020 21:00:35 -81.47, 91.35 118.24 07/08/2020 20:59:45 -81.46, 91.53 118.24 2.97 50
8 07/08/2020 21:50:02 81.46,-101.32 61.73 07/08/2020 21:50:26 81.46,-101.19 61.76 2.26 24
9 07/11/2020 16:34:51 -81.46, 157.59 117.91 07/11/2020 16:34:06 -81.47, 157.72 117.91 2.25 45
